DW7061 Weather Reports


Display with metric or nautical units.
time (UTC)temp
F
wind
direction
speed
MPH
gust
MPH
rain 1hr
in
rain 24hr
in
rain mn
in
humidity
%
barometer
mb
20260903232037 70 0.0 0.0 0.00 0.00 0.00 95 1012.2
20260903231037 71 0.0 0.0 0.00 0.00 0.00 94 1012.1
20260903230017 71 0.0 0.0 0.00 0.00 0.00 94 1012.2
20260903225018 72 0.0 0.0 0.00 0.00 0.00 94 1012.4
20260903224018 72 0.0 0.0 0.00 0.00 0.00 93 1012.3
20260903223018 73 0.0 0.0 0.00 0.00 0.00 92 1012.4
20260903222017 74 0.0 0.0 0.00 0.00 0.00 91 1012.5
20260903221017 74 0.0 0.0 0.00 0.00 0.00 90 1012.5
20260903220017 74 0.0 0.0 0.00 0.00 0.00 90 1012.4
20260903215017 75 0.0 0.0 0.00 0.00 0.00 89 1012.8
20260903214018 75 0.0 0.0 0.00 0.00 0.00 89 1013.0
20260903213057 75 0.0 0.0 0.00 0.00 0.00 88 1012.7
20260903212017 75 0.0 0.0 0.00 0.00 0.00 88 1012.8
20260903211037 75 0.0 0.0 0.00 0.00 0.00 88 1012.9
20260903210018 74 0.0 0.0 0.00 0.00 0.00 91 1012.6
20260903205017 73 0.0 0.0 0.00 0.00 0.00 91 1012.6
20260903204037 73 0.0 0.0 0.00 0.00 0.00 91 1012.6
20260903203037 73 0.0 0.0 0.00 0.00 0.00 91 1012.5
20260903202018 73 0.0 0.0 0.00 0.00 0.00 91 1012.7
20260903201017 73 0.0 0.0 0.00 0.00 0.00 91 1012.7
20260903200017 73 0.0 0.0 0.00 0.00 0.00 91 1012.7
20260903195037 74 0.0 0.0 0.00 0.00 0.00 89 1012.8
20260903194017 74 0.0 0.0 0.00 0.00 0.00 89 1012.9
20260903193038 74 0.0 0.0 0.00 0.00 0.00 88 1013.0
20260903192038 74 0.0 0.0 0.00 0.00 0.00 88 1013.0
20260903191017 74 0.0 0.0 0.00 0.00 0.00 89 1013.1
20260903190038 73 0.0 1.0 0.00 0.00 0.00 90 1013.2
20260903185017 73 0.0 1.0 0.00 0.00 0.00 89 1013.2
20260903184017 73 0.0 0.0 0.00 0.00 0.00 88 1013.1
20260903183018 74 0.0 0.0 0.00 0.00 0.00 87 1013.3
20260903182039 75 0.0 1.0 0.00 0.00 0.00 87 1013.4
20260903181017 75 0.0 1.0 0.00 0.00 0.00 87 1013.4
20260903180018 74 0.0 1.0 0.00 0.00 0.00 88 1013.6
20260903175017 74 0.0 2.0 0.00 0.00 0.00 85 1013.7
20260903174017 75 0.0 1.0 0.00 0.00 0.00 85 1013.6
20260903173018 76 0.0 1.0 0.00 0.00 0.00 82 1013.8
20260903172037 75 0.0 2.0 0.00 0.00 0.00 84 1013.6
20260903171037 74 0.0 1.0 0.00 0.00 0.00 89 1013.7
20260903170017 72 0.0 2.0 0.00 0.00 0.00 89 1013.9
20260903165038 71 0.0 0.0 0.00 0.00 0.00 91 1014.1
20260903164037 71 0.0 0.0 0.00 0.00 0.00 92 1014.1
20260903163017 71 0.0 0.0 0.00 0.00 0.00 92 1014.0
20260903162018 70 0.0 0.0 0.00 0.00 0.00 93 1014.0
20260903161017 70 0.0 1.0 0.00 0.00 0.00 95 1014.1
20260903160037 69 0.0 0.0 0.00 0.00 0.00 95 1014.0
20260903155038 68 0.0 0.0 0.00 0.00 0.00 96 1014.1
20260903154018 68 0.0 0.0 0.00 0.00 0.00 96 1014.1
20260903153017 68 0.0 0.0 0.00 0.00 0.00 97 1014.0
20260903152017 67 0.0 2.0 0.00 0.00 0.00 97 1014.0
20260903151017 67 0.0 2.0 0.00 0.00 0.00 97 1014.0
20260903150018 66 0.0 1.0 0.00 0.00 0.00 97 1014.3
20260903145017 66 0.0 3.0 0.00 0.00 0.00 97 1014.4
20260903144017 66 0.0 2.0 0.00 0.00 0.00 97 1014.4
20260903143037 65 0.0 1.0 0.00 0.00 0.00 98 1014.3
20260903142018 65 0.0 0.0 0.00 0.00 0.00 98 1014.3
20260903141017 64 0.0 1.0 0.00 0.00 0.00 98 1014.3
20260903140017 64 0.0 0.0 0.00 0.00 0.00 98 1014.4
20260903135038 64 0.0 1.0 0.00 0.00 0.00 98 1014.4
20260903134019 64 0.0 1.0 0.00 0.00 0.00 98 1014.4
20260903133017 63 0.0 1.0 0.00 0.00 0.00 98 1014.5
20260903132017 63 0.0 0.0 0.00 0.00 0.00 97 1014.7
20260903131018 63 0.0 0.0 0.00 0.00 0.00 97 1014.8
20260903130017 62 0.0 0.0 0.00 0.00 0.00 97 1014.7
20260903125017 62 0.0 1.0 0.00 0.00 0.00 97 1014.8
20260903124018 62 0.0 1.0 0.00 0.00 0.00 97 1014.8
20260903123037 62 0.0 0.0 0.00 0.00 0.00 97 1015.1
20260903122017 62 0.0 0.0 0.00 0.00 0.00 97 1015.2
20260903121018 62 0.0 0.0 0.00 0.00 0.00 97 1015.3
20260903120017 62 0.0 0.0 0.00 0.00 0.00 97 1015.3
20260903115017 62 0.0 0.0 0.00 0.00 0.00 97 1015.3
20260903114037 61 0.0 0.0 0.00 0.00 0.00 97 1015.1
20260903113017 61 0.0 0.0 0.00 0.00 0.00 97 1015.1
20260903112018 61 0.0 0.0 0.00 0.00 0.00 97 1015.3
20260903111017 61 0.0 0.0 0.00 0.00 0.00 97 1015.4
20260903110017 61 0.0 0.0 0.00 0.00 0.00 97 1015.3
20260903105017 61 0.0 0.0 0.00 0.00 0.00 97 1015.4
20260903104017 60 0.0 0.0 0.00 0.00 0.00 97 1015.3
20260903103038 60 0.0 0.0 0.00 0.00 0.00 97 1015.2
20260903102057 60 0.0 0.0 0.00 0.00 0.00 97 1015.2
20260903101018 60 0.0 0.0 0.00 0.00 0.00 97 1015.1
20260903100017 59 0.0 0.0 0.00 0.00 0.00 96 1015.0
20260903095017 59 0.0 0.0 0.00 0.00 0.00 96 1015.0
20260903094017 59 0.0 0.0 0.00 0.00 0.00 96 1015.1
20260903093037 59 0.0 0.0 0.00 0.00 0.00 96 1015.1
20260903092018 59 0.0 0.0 0.00 0.00 0.00 96 1015.2
20260903091017 59 0.0 0.0 0.00 0.00 0.00 96 1015.5
20260903090017 59 0.0 0.0 0.00 0.00 0.00 96 1015.7
20260903085017 59 0.0 0.0 0.00 0.00 0.00 96 1015.8
20260903084018 59 0.0 0.0 0.00 0.00 0.00 96 1015.8
20260903083017 59 0.0 0.0 0.00 0.00 0.00 96 1015.7
20260903082017 59 0.0 0.0 0.00 0.00 0.00 96 1015.6
20260903081017 59 0.0 0.0 0.00 0.00 0.00 96 1015.6
20260903080017 59 0.0 0.0 0.00 0.00 0.00 96 1015.7
20260903075017 59 0.0 0.0 0.00 0.00 0.00 96 1015.7
20260903074037 59 0.0 1.0 0.00 0.00 0.00 96 1015.8
20260903073017 59 0.0 1.0 0.00 0.00 0.00 96 1015.8
20260903072039 59 0.0 2.0 0.00 0.00 0.00 96 1016.2
20260903071017 59 0.0 1.0 0.00 0.00 0.00 95 1016.1
20260903070017 59 0.0 0.0 0.00 0.00 0.00 95 1016.4
20260903065017 59 0.0 1.0 0.00 0.00 0.00 95 1016.0
20260903064017 59 0.0 1.0 0.00 0.00 0.00 95 1015.8
20260903063017 59 0.0 1.0 0.00 0.00 0.00 95 1015.8
20260903062017 59 0.0 1.0 0.00 0.00 0.00 94 1016.2
20260903061017 60 0.0 1.0 0.00 0.00 0.00 94 1016.4
20260903060017 60 0.0 1.0 0.00 0.00 0.00 93 1017.1
20260903055017 60 0.0 2.0 0.00 0.00 0.00 93 1017.4
20260903054018 60 0.0 0.0 0.00 0.00 0.00 92 1017.6
20260903053017 61 0.0 1.0 0.00 0.00 0.00 92 1017.8
20260903052017 61 0.0 1.0 0.00 0.00 0.00 90 1018.1
20260903051017 61 0.0 1.0 0.00 0.00 0.00 89 1018.1
20260903050017 61 0.0 0.0 0.00 0.00 0.00 88 1018.1
20260903045017 61 0.0 1.0 0.00 0.00 0.00 87 1018.1
20260903044016 61 0.0 3.0 0.00 0.00 0.00 87 1017.9
20260903043017 61 0.0 0.0 0.00 0.00 0.00 86 1018.1
20260903042017 62 0.0 0.0 0.00 0.00 0.00 85 1018.2
20260903041017 62 0.0 0.0 0.00 0.00 0.00 84 1018.5
20260903040021 62 0.0 0.0 0.00 0.00 0.00 84 1018.3
20260903035017 62 0.0 1.0 0.00 0.00 0.00 83 1018.3
20260903034518 62 0.0 0.0 0.00 0.00 0.00 82 1018.1
20260903033538 62 0.0 0.0 0.00 0.00 0.00 82 1018.1
20260903032518 62 0.0 1.0 0.00 0.00 0.00 82 1018.2
20260903031517 62 0.0 1.0 0.00 0.00 0.00 82 1018.1
20260903030558 62 0.0 0.0 0.00 0.00 0.00 83 1018.4
20260903025518 62 0.0 0.0 0.00 0.00 0.00 84 1018.4
20260903024517 62 0.0 2.0 0.00 0.00 0.00 85 1018.6
20260903023518 62 0.0 2.0 0.00 0.00 0.00 87 1018.8
20260903022517 62 0.0 0.0 0.00 0.00 0.00 89 1019.3
20260903021518 63 0.0 2.0 0.00 0.00 0.00 88 1019.3
20260903020519 63 0.0 0.0 0.00 0.00 0.00 88 1019.6
20260903015538 63 0.0 0.0 0.00 0.00 0.00 89 1019.5
20260903014517 63 0.0 0.0 0.00 0.00 0.00 88 1019.5
20260903013518 63 0.0 0.0 0.00 0.00 0.00 86 1019.5
20260903012538 63 0.0 2.0 0.00 0.00 0.00 86 1019.3
20260903011517 63 0.0 1.0 0.00 0.00 0.00 86 1019.3
20260903010517 63 0.0 1.0 0.00 0.00 0.00 86 1019.3
20260903005517 63 0.0 2.0 0.00 0.00 0.00 86 1018.8
20260903004517 63 0.0 4.0 0.00 0.00 0.00 85 1018.6
20260903003518 64 0.0 2.0 0.00 0.00 0.00 85 1018.8
20260903002518 64 0.0 1.0 0.00 0.00 0.00 84 1019.1
20260903001518 64 0.0 3.0 0.00 0.00 0.00 84 1019.1
20260903000517 64 0.0 1.0 0.00 0.00 0.00 85 1019.0
20260902235518 64 0.0 2.0 0.00 0.00 0.00 84 1019.1
20260902234518 64 0.0 1.0 0.00 0.00 0.00 85 1019.0
20260902233559 65 0.0 2.0 0.00 0.00 0.00 88 1019.1
20260902232538 65 0.0 3.0 0.00 0.00 0.00 89 1019.5